Regional Weather Roundup
Issued by NWS

Home | Current Version | Previous Version | Text Only | Print | Product List | Glossary On
Versions: 1 2 3 4 5 6 7 8 9 10 11 12 13 14 15 16 17 18 19 20 21 22 23 24 25 26 27
000
ASUS45 KPSR 051010
RWRAZ

ARIZONA HOURLY REGIONAL WEATHER ROUNDUP
NATIONAL WEATHER SERVICE PHOENIX AZ
300 AM MST MON DEC 05 2016

NOTE: FAIR INDICATES FEW OR NO CLOUDS BELOW 12,000 FEET WITH NO
SIGNIFICANT WEATHER AND/OR OBSTRUCTIONS TO VISIBILITY.

AZZ001>003-036-051100-
NORTHWEST ARIZONA

CITY           SKY/WX    TMP DP  RH WIND       PRES   REMARKS
BULLHEAD CITY  PTCLDY    46  23  39 CALM      29.93R
KINGMAN        CLEAR     41  11  29 VRB3      29.92F
$$

AZZ004>008-015-016-018-051100-
NORTH CENTRAL ARIZONA

CITY           SKY/WX    TMP DP  RH WIND       PRES   REMARKS
GRAND CANYON   CLEAR     20  17  88 CALM      29.98F
PRESCOTT       CLOUDY    37  21  52 CALM      29.98F
FLAGSTAFF      MOCLDY    25  16  68 CALM      30.02F
PAYSON         CLEAR     37  14  38 CALM      30.03F
PAGE           PTCLDY    33  15  47 W3        29.93F
$$

AZZ009>014-017-051100-
NORTHEAST ARIZONA

CITY           SKY/WX    TMP DP  RH WIND       PRES   REMARKS
WINSLOW        CLOUDY    28  16  60 SE10      29.96F WCI  19
SAINT JOHNS    CLEAR     19  13  77 CALM      29.99F
WINDOW ROCK    CLEAR     19  14  81 CALM      29.99F
SHOW LOW       PTCLDY    34  10  37 S12       30.01F WCI  25
$$

AZZ023-051100-
GREATER PHOENIX AREA

CITY           SKY/WX    TMP DP  RH WIND       PRES   REMARKS
PHOENIX        PTCLDY    48  25  40 E6        29.94S
BUCKEYE          N/A     41  27  56 NE6       29.95F
LUKE AFB       PTCLDY    43  29  58 N3        29.93F
DEER VALLEY    PTCLDY    46  21  37 E3        29.94S
SCOTTSDALE     PTCLDY    47  26  44 CALM      29.96S
MESA-GATEWAY   PTCLDY    41  23  48 E8        29.95S
$$

AZZ027-028-051100-
SOUTHWEST MARICOPA COUNTY AND PINAL COUNTY

CITY           SKY/WX    TMP DP  RH WIND       PRES   REMARKS
CASA GRANDE    NOT AVBL
$$

AZZ503-504-507>509-051100-
SOUTHEAST ARIZONA

CITY           SKY/WX    TMP DP  RH WIND       PRES   REMARKS
TUCSON         CLEAR     42  22  44 SE13      29.98F
DAVIS-MONTHAN  PTCLDY    42  21  41 SE12      29.97F
NOGALES        CLEAR     31  22  69 CALM      30.01F
SIERRA VISTA   CLEAR     40  19  43 W7        30.02F WCI  35
DOUGLAS        CLEAR     25  22  88 CALM      30.03S
SAFFORD        CLEAR     32  22  66 SE6       29.98F WCI  26
$$

AZZ020-021-025-026-031-051100-
SOUTHWEST ARIZONA

CITY           SKY/WX    TMP DP  RH WIND       PRES   REMARKS
YUMA           PTCLDY    47  20  34 CALM      29.90F
$$

CAZ031-033-041-043-047-048-061-051100-
SOUTHERN CALIFORNIA

CITY           SKY/WX    TMP DP  RH WIND       PRES   REMARKS
DOWNTOWN L.A.  CLEAR     52  44  74 CALM      29.96F
L.A. AIRPORT   PTCLDY    51  49  92 E5        29.96F
SAN DIEGO      MOCLDY    55  53  93 N3        29.99S
BURBANK        CLEAR     47  29  49 CALM      29.96S
ONTARIO        PTCLDY    46  34  62 CALM      29.97F
RIVERSIDE      CLEAR     49  39  68 CALM      29.98S
PALM SPRINGS   PTCLDY    50  33  52 VRB3      29.91F
EL CENTRO NAS  CLEAR     45  17  32 W3        29.90F
IMPERIAL       CLEAR     46  24  42 CALM      29.88F
BLYTHE         CLEAR     43  19  38 CALM      29.90F
NEEDLES        CLEAR     48  14  25 NW3       29.91S
$$

NVZ020-UTZ003-051100-
SOUTHERN NEVADA-UTAH

CITY           SKY/WX    TMP DP  RH WIND       PRES   REMARKS
LAS VEGAS      MOCLDY    44  17  33 W3        29.92R
SALT LAKE CITY CLOUDY    40  27  59 N15       29.80R WCI  32
$$

NMZ009-TXZ055-051100-
NEW MEXICO-WEST TEXAS

CITY           SKY/WX    TMP DP  RH WIND       PRES   REMARKS
ALBUQUERQUE    CLOUDY    29  13  51 S5        29.98F WCI  24
EL PASO        CLEAR     35  31  85 SE5       29.98F WCI  31
$$


........................KEY........................
SKY/WX - SKY CONDITION/WEATHER
TMP    - TEMPERATURE IN FAHRENHEIT
DP     - DEW POINT IN FAHRENHEIT
RH     - RELATIVE HUMIDITY IN PERCENT
WIND   - DIRECTION AND SPEED IN MILES PER HOUR (MPH)
VRB    - VARIABLE WIND DIRECTION
PRES   - MEAN SEA LEVEL PRESSURE IN INCHES OF MERCURY
         F - FALLING PRESSURE   R - RISING PRESSURE
         S - STEADY PRESSURE
VSB    - VISIBILITY IN MILES
HX     - HEAT INDEX IN FAHRENHEIT
WCI    - WIND CHILL INDEX IN FAHRENHEIT
TC     - TEMPERATURE IN CELSIUS WHICH IS ALSO KNOWN AS
         TEMPERATURE IN CENTIGRADE
AFB    - AIR FORCE BASE
         LUKE AFB IS LUKE AIR FORCE BASE
         DAVIS-MONTHAN IS DAVIS-MONTHAN AIR FORCE BASE
NAS    - NAVAL AIR STATION
         EL CENTRO NAS IS EL CENTRO NAVAL AIR STATION
N/A    - NOT AVAILABLE





USA.gov is the U.S. government's official web portal to all federal, state and local government web resources and services.